Hlavní strana
METAR-TAF:

METAR-TAF

Letiště :

Olive Branch Airport

Olive Branch, Mississippi, Spojené státy americké

zeměpisná šířka: 34-58-44N, zeměpisná délka: 089-47-13W, výška: 122 m

Aktuální stav počasí

Zpráva byla vytvořena před 14 minutami, v 02:55 UTC
Bezvětří
Teplota 9°C
Vlhkost vzduchu 87%
Tlak 1028 hPa
Viditelnost: 16.1 km
Jasno

METAR: KOLV 190255Z AUTO 00000KT 10SM CLR 09/07 A3035 RMK A01

Čas: 22:09 (03:09 UTC)


TAF: chybějící

Stav a předpovědi počasí z více než 4 000 letišť (zprávy METAR a TAF).

Červené a žluté tečky na mapě představují dostupné meteorologické stanice.

Když kurzor umístíte na tečku, zobrazí se název stanice.

Pak kliknutím zobrazíte stav a předpověď počasí.

Chcete-li změnit mapu, kliknutím na zelené tlačítko se znaménkem +mapu přiblížíte, kliknutím na zelené tlačítko se znaménkem – mapu oddálíte a kliknutím na zelené šipky přejdete na sousední mapy.


METAR-TAF: